O3B PFM (39191 NORAD) Tracking and Keplerian Element Data

This shows tracking and keplerian element data for the satellite.

Feedback or suggestion? Click here.




ElementValue
Catalog39191
NameO3B PFM
Epoch Orbit9245
Epoch Day198.58546503
Epoch Year2018
RAAN3.3192
Inclination0.0342
Eccentricity5.51E-05
Argument of Perigee134.6526
Mean Anonmoly222.0288
Mean Motion5.00115051
Decay Rate-2.7E-07
L11 39191U 13031D 18198.58546503 -.00000027 00000-0 00000-0 0 9994
L22 39191 0.0342 3.3192 0000551 134.6526 222.0288 5.00115051 92452

Live tracking and technical data element details for O3B PFM (NORAD 39191). O3B PFM can be tracked NOW for your location showing map with azimuth and elevation plus other details from your city location.

Track the satellite on the map from your city or location and see movement details for azimuth, elevation, latitude, longitude, range, height, and movement on the map or in text.







IsCatalogInMostPopularTable: catalog: 39191, numindb: 59
Update: records affected: 1



GetName: 39191 O3B PFM

Hit Count: updated at: Wed, 18 Jul 2018 20:18:04 GMT